Time,TemperatureF,DewpointF,PressureIn,WindDirection,WindDirectionDegrees,WindSpeedMPH,WindSpeedGustMPH,Humidity,HourlyPrecipIn,Conditions,Clouds,dailyrainin,SoftwareType,DateUTC
2013-04-21 00:01:00,49.0,43.0,30.42,NW,318,1.0,4.0,81,0.00,,,0.10,,2013-04-21 07:01:00,
2013-04-21 00:11:00,49.0,43.0,30.42,NW,318,1.0,4.0,81,0.00,,,0.10,,2013-04-21 07:11:00,
2013-04-21 00:21:00,49.0,43.0,30.42,NW,318,1.0,4.0,81,0.00,,,0.10,,2013-04-21 07:21:00,
2013-04-21 00:31:00,49.0,43.0,30.42,NW,318,0.0,2.0,81,0.00,,,0.10,,2013-04-21 07:31:00,
2013-04-21 00:42:00,49.0,43.0,30.42,NW,318,0.0,2.0,81,0.00,,,0.10,,2013-04-21 07:42:00,
2013-04-21 00:52:00,49.0,43.0,30.42,NW,318,0.0,2.0,81,0.00,,,0.10,,2013-04-21 07:52:00,
2013-04-21 01:01:00,49.0,44.0,30.42,NW,326,0.0,0.0,82,0.00,,,0.09,,2013-04-21 08:01:00,
2013-04-21 01:12:00,49.0,44.0,30.42,NW,326,0.0,0.0,82,0.00,,,0.09,,2013-04-21 08:12:00,
2013-04-21 01:21:00,49.0,44.0,30.42,NW,326,0.0,0.0,82,0.00,,,0.09,,2013-04-21 08:21:00,
2013-04-21 01:32:00,49.0,44.0,30.41,NW,326,0.0,0.0,84,0.00,,,0.09,,2013-04-21 08:32:00,
2013-04-21 01:42:00,49.0,44.0,30.41,NW,326,0.0,0.0,84,0.00,,,0.09,,2013-04-21 08:42:00,
2013-04-21 01:52:00,49.0,44.0,30.41,NW,326,0.0,0.0,84,0.00,,,0.09,,2013-04-21 08:52:00,
2013-04-21 02:01:00,49.0,44.0,30.42,NW,326,0.0,0.0,83,0.00,,,0.08,,2013-04-21 09:01:00,
2013-04-21 02:11:00,49.0,44.0,30.42,NW,326,0.0,0.0,83,0.00,,,0.08,,2013-04-21 09:11:00,
2013-04-21 02:21:00,49.0,44.0,30.42,NW,326,0.0,0.0,83,0.00,,,0.08,,2013-04-21 09:21:00,
2013-04-21 02:32:00,48.0,44.0,30.41,NNE,20,1.0,1.0,85,0.00,,,0.08,,2013-04-21 09:32:00,
2013-04-21 02:43:00,48.0,44.0,30.41,NNE,20,1.0,1.0,85,0.00,,,0.08,,2013-04-21 09:43:00,
2013-04-21 02:53:00,48.0,44.0,30.41,NNE,20,1.0,1.0,85,0.00,,,0.08,,2013-04-21 09:53:00,
2013-04-21 03:02:00,48.0,43.0,30.41,NNE,20,0.0,0.0,84,0.00,,,0.08,,2013-04-21 10:02:00,
2013-04-21 03:12:00,48.0,43.0,30.41,NNE,20,0.0,0.0,84,0.00,,,0.08,,2013-04-21 10:12:00,
2013-04-21 03:22:00,48.0,43.0,30.41,NNE,20,0.0,0.0,84,0.00,,,0.08,,2013-04-21 10:22:00,
2013-04-21 03:32:00,48.0,42.0,30.41,North,5,0.0,2.0,81,0.00,,,0.08,,2013-04-21 10:32:00,
2013-04-21 03:42:00,48.0,42.0,30.41,North,5,0.0,2.0,81,0.00,,,0.08,,2013-04-21 10:42:00,
2013-04-21 03:52:00,48.0,42.0,30.41,North,5,0.0,2.0,81,0.00,,,0.08,,2013-04-21 10:52:00,
2013-04-21 04:02:00,48.0,43.0,30.40,North,6,0.0,2.0,82,0.00,,,0.07,,2013-04-21 11:02:00,
2013-04-21 04:12:00,48.0,43.0,30.40,North,6,0.0,2.0,82,0.00,,,0.07,,2013-04-21 11:12:00,
2013-04-21 04:22:00,48.0,43.0,30.40,North,6,0.0,2.0,82,0.00,,,0.07,,2013-04-21 11:22:00,
2013-04-21 04:33:00,48.0,42.0,30.40,North,6,0.0,1.0,81,0.00,,,0.07,,2013-04-21 11:33:00,
2013-04-21 04:42:00,48.0,42.0,30.40,North,6,0.0,1.0,81,0.00,,,0.07,,2013-04-21 11:42:00,
2013-04-21 04:52:00,48.0,42.0,30.40,North,6,0.0,1.0,81,0.00,,,0.07,,2013-04-21 11:52:00,
2013-04-21 05:02:00,48.0,43.0,30.40,North,6,0.0,0.0,82,0.00,,,0.06,,2013-04-21 12:02:00,
2013-04-21 05:12:00,48.0,43.0,30.40,North,6,0.0,0.0,82,0.00,,,0.06,,2013-04-21 12:12:00,
2013-04-21 05:22:00,48.0,43.0,30.40,North,6,0.0,0.0,82,0.00,,,0.06,,2013-04-21 12:22:00,
2013-04-21 05:31:00,48.0,43.0,30.40,North,7,1.0,1.0,82,0.00,,,0.06,,2013-04-21 12:31:00,
2013-04-21 05:42:00,48.0,43.0,30.40,North,7,1.0,1.0,82,0.00,,,0.06,,2013-04-21 12:42:00,
2013-04-21 05:52:00,48.0,43.0,30.40,North,7,1.0,1.0,82,0.00,,,0.06,,2013-04-21 12:52:00,
2013-04-21 06:01:00,48.0,43.0,30.40,North,6,2.0,2.0,82,0.00,,,0.02,,2013-04-21 13:01:00,
2013-04-21 06:11:00,48.0,43.0,30.40,North,6,2.0,2.0,82,0.00,,,0.02,,2013-04-21 13:11:00,
2013-04-21 06:21:00,48.0,43.0,30.40,North,6,2.0,2.0,82,0.00,,,0.02,,2013-04-21 13:21:00,
2013-04-21 06:32:00,47.0,41.0,30.40,North,8,2.0,4.0,80,0.00,,,0.02,,2013-04-21 13:32:00,
2013-04-21 06:42:00,47.0,41.0,30.40,North,8,2.0,4.0,80,0.00,,,0.02,,2013-04-21 13:42:00,
2013-04-21 06:52:00,47.0,41.0,30.40,North,8,2.0,4.0,80,0.00,,,0.02,,2013-04-21 13:52:00,
2013-04-21 07:01:00,47.0,41.0,30.40,North,0,1.0,4.0,80,0.00,,,0.01,,2013-04-21 14:01:00,
2013-04-21 07:11:00,47.0,41.0,30.40,North,0,1.0,4.0,80,0.00,,,0.01,,2013-04-21 14:11:00,
2013-04-21 07:21:00,47.0,41.0,30.40,North,0,1.0,4.0,80,0.00,,,0.01,,2013-04-21 14:21:00,
2013-04-21 07:31:00,47.0,42.0,30.40,North,0,0.0,0.0,83,0.00,,,0.01,,2013-04-21 14:31:00,
2013-04-21 07:42:00,47.0,42.0,30.40,North,0,0.0,0.0,83,0.00,,,0.01,,2013-04-21 14:42:00,
2013-04-21 07:52:00,47.0,42.0,30.40,North,0,0.0,0.0,83,0.00,,,0.01,,2013-04-21 14:52:00,
2013-04-21 08:01:00,47.0,41.0,30.42,North,0,1.0,1.0,81,0.00,,,0.00,,2013-04-21 15:01:00,
2013-04-21 08:11:00,47.0,41.0,30.42,North,0,1.0,1.0,81,0.00,,,0.00,,2013-04-21 15:11:00,
2013-04-21 08:22:00,47.0,41.0,30.42,North,0,1.0,1.0,81,0.00,,,0.00,,2013-04-21 15:22:00,
2013-04-21 08:33:00,48.0,42.0,30.41,North,1,1.0,3.0,80,0.00,,,0.00,,2013-04-21 15:33:00,
2013-04-21 08:43:00,48.0,42.0,30.41,North,1,1.0,3.0,80,0.00,,,0.00,,2013-04-21 15:43:00,
2013-04-21 08:53:00,48.0,42.0,30.41,North,1,1.0,3.0,80,0.00,,,0.00,,2013-04-21 15:53:00,
2013-04-21 09:03:00,49.0,43.0,30.41,North,2,1.0,2.0,80,0.00,,,0.00,,2013-04-21 16:03:00,
2013-04-21 09:12:00,49.0,43.0,30.41,North,2,1.0,2.0,80,0.00,,,0.00,,2013-04-21 16:12:00,
2013-04-21 09:22:00,49.0,43.0,30.41,North,2,1.0,2.0,80,0.00,,,0.00,,2013-04-21 16:22:00,
2013-04-21 09:32:00,49.0,43.0,30.41,ENE,70,2.0,3.0,80,0.00,,,0.00,,2013-04-21 16:32:00,
2013-04-21 09:42:00,49.0,43.0,30.41,ENE,70,2.0,3.0,80,0.00,,,0.00,,2013-04-21 16:42:00,
2013-04-21 09:52:00,49.0,43.0,30.41,ENE,70,2.0,3.0,80,0.00,,,0.00,,2013-04-21 16:52:00,
2013-04-21 10:01:00,50.0,44.0,30.41,ENE,69,0.0,2.0,80,0.00,,,0.00,,2013-04-21 17:01:00,
2013-04-21 10:12:00,50.0,44.0,30.41,ENE,69,0.0,2.0,80,0.00,,,0.00,,2013-04-21 17:12:00,
2013-04-21 10:22:00,50.0,44.0,30.41,ENE,69,0.0,2.0,80,0.00,,,0.00,,2013-04-21 17:22:00,
2013-04-21 10:32:00,51.0,44.0,30.41,NNE,21,3.0,4.0,77,0.00,,,0.00,,2013-04-21 17:32:00,
2013-04-21 10:42:00,51.0,44.0,30.41,NNE,21,3.0,4.0,77,0.00,,,0.00,,2013-04-21 17:42:00,
2013-04-21 10:52:00,51.0,44.0,30.41,NNE,21,3.0,4.0,77,0.00,,,0.00,,2013-04-21 17:52:00,
2013-04-21 11:02:00,53.0,45.0,30.40,NE,39,3.0,3.0,74,0.00,,,0.00,,2013-04-21 18:02:00,
2013-04-21 11:11:00,53.0,45.0,30.40,NE,39,3.0,3.0,74,0.00,,,0.00,,2013-04-21 18:11:00,
2013-04-21 11:22:00,53.0,45.0,30.40,NE,39,3.0,3.0,74,0.00,,,0.00,,2013-04-21 18:22:00,
2013-04-21 11:32:00,55.0,46.0,30.40,East,86,1.0,3.0,72,0.00,,,0.00,,2013-04-21 18:32:00,
2013-04-21 11:42:00,55.0,46.0,30.40,East,86,1.0,3.0,72,0.00,,,0.00,,2013-04-21 18:42:00,
2013-04-21 11:52:00,55.0,46.0,30.40,East,86,1.0,3.0,72,0.00,,,0.00,,2013-04-21 18:52:00,
2013-04-21 12:02:00,58.0,47.0,30.40,ENE,62,2.0,5.0,66,0.00,,,0.00,,2013-04-21 19:02:00,
2013-04-21 12:11:00,58.0,47.0,30.40,ENE,62,2.0,5.0,66,0.00,,,0.00,,2013-04-21 19:11:00,
2013-04-21 12:21:00,58.0,47.0,30.40,ENE,62,2.0,5.0,66,0.00,,,0.00,,2013-04-21 19:21:00,
2013-04-21 12:31:00,63.0,50.0,30.40,SE,127,2.0,4.0,63,0.00,,,0.00,,2013-04-21 19:31:00,
2013-04-21 12:42:00,63.0,50.0,30.40,SE,127,2.0,4.0,63,0.00,,,0.00,,2013-04-21 19:42:00,
2013-04-21 12:52:00,63.0,50.0,30.40,SE,127,2.0,4.0,63,0.00,,,0.00,,2013-04-21 19:52:00,
2013-04-21 13:01:00,63.0,48.0,30.38,North,1,2.0,6.0,58,0.00,,,0.00,,2013-04-21 20:01:00,
2013-04-21 13:11:00,63.0,48.0,30.38,North,1,2.0,6.0,58,0.00,,,0.00,,2013-04-21 20:11:00,
2013-04-21 13:22:00,63.0,48.0,30.38,North,1,2.0,6.0,58,0.00,,,0.00,,2013-04-21 20:22:00,
2013-04-21 13:31:00,64.0,49.0,30.38,North,7,1.0,5.0,58,0.00,,,0.00,,2013-04-21 20:31:00,
2013-04-21 13:42:00,64.0,49.0,30.38,North,7,1.0,5.0,58,0.00,,,0.00,,2013-04-21 20:42:00,
2013-04-21 13:52:00,64.0,49.0,30.38,North,7,1.0,5.0,58,0.00,,,0.00,,2013-04-21 20:52:00,
2013-04-21 14:02:00,67.0,49.0,30.36,NE,34,1.0,4.0,53,0.00,,,0.00,,2013-04-21 21:02:00,
2013-04-21 14:12:00,67.0,49.0,30.36,NE,34,1.0,4.0,53,0.00,,,0.00,,2013-04-21 21:12:00,
2013-04-21 14:21:00,67.0,49.0,30.36,NE,34,1.0,4.0,53,0.00,,,0.00,,2013-04-21 21:21:00,
2013-04-21 14:33:00,67.0,51.0,30.36,North,2,5.0,5.0,57,0.00,,,0.00,,2013-04-21 21:33:00,
2013-04-21 14:43:00,67.0,51.0,30.36,North,2,5.0,5.0,57,0.00,,,0.00,,2013-04-21 21:43:00,
2013-04-21 14:53:00,67.0,51.0,30.36,North,2,5.0,5.0,57,0.00,,,0.00,,2013-04-21 21:53:00,
2013-04-21 15:02:00,66.0,51.0,30.36,North,9,3.0,5.0,59,0.00,,,0.00,,2013-04-21 22:02:00,
2013-04-21 15:12:00,66.0,51.0,30.36,North,9,3.0,5.0,59,0.00,,,0.00,,2013-04-21 22:12:00,
2013-04-21 15:22:00,66.0,51.0,30.36,North,9,3.0,5.0,59,0.00,,,0.00,,2013-04-21 22:22:00,
2013-04-21 15:32:00,64.0,49.0,30.37,NE,38,1.0,4.0,59,0.00,,,0.00,,2013-04-21 22:32:00,
2013-04-21 15:43:00,64.0,49.0,30.37,NE,38,1.0,4.0,59,0.00,,,0.00,,2013-04-21 22:43:00,
2013-04-21 15:52:00,64.0,49.0,30.37,NE,38,1.0,4.0,59,0.00,,,0.00,,2013-04-21 22:52:00,
2013-04-21 16:02:00,63.0,50.0,30.37,ENE,64,1.0,3.0,63,0.00,,,0.00,,2013-04-21 23:02:00,
2013-04-21 16:12:00,63.0,50.0,30.37,ENE,64,1.0,3.0,63,0.00,,,0.00,,2013-04-21 23:12:00,
2013-04-21 16:22:00,63.0,50.0,30.37,ENE,64,1.0,3.0,63,0.00,,,0.00,,2013-04-21 23:22:00,
2013-04-21 16:32:00,61.0,50.0,30.37,ENE,60,0.0,3.0,66,0.00,,,0.00,,2013-04-21 23:32:00,
2013-04-21 16:42:00,61.0,50.0,30.37,ENE,60,0.0,3.0,66,0.00,,,0.00,,2013-04-21 23:42:00,
2013-04-21 16:52:00,61.0,50.0,30.37,ENE,60,0.0,3.0,66,0.00,,,0.00,,2013-04-21 23:52:00,
2013-04-21 17:01:00,60.0,49.0,30.38,East,97,2.0,4.0,66,0.00,,,0.00,,2013-04-22 00:01:00,
2013-04-21 17:11:00,60.0,49.0,30.38,East,97,2.0,4.0,66,0.00,,,0.00,,2013-04-22 00:11:00,
2013-04-21 17:21:00,60.0,49.0,30.38,East,97,2.0,4.0,66,0.00,,,0.00,,2013-04-22 00:21:00,
2013-04-21 17:31:00,59.0,48.0,30.37,ESE,103,4.0,4.0,68,0.00,,,0.00,,2013-04-22 00:31:00,
2013-04-21 17:42:00,59.0,48.0,30.37,ESE,103,4.0,4.0,68,0.00,,,0.00,,2013-04-22 00:42:00,
2013-04-21 17:52:00,59.0,48.0,30.37,ESE,103,4.0,4.0,68,0.00,,,0.00,,2013-04-22 00:52:00,
2013-04-21 18:01:00,58.0,48.0,30.36,ESE,122,1.0,4.0,70,0.00,,,0.00,,2013-04-22 01:01:00,
2013-04-21 18:12:00,58.0,48.0,30.36,ESE,122,1.0,4.0,70,0.00,,,0.00,,2013-04-22 01:12:00,
2013-04-21 18:21:00,58.0,48.0,30.36,ESE,122,1.0,4.0,70,0.00,,,0.00,,2013-04-22 01:21:00,
2013-04-21 18:32:00,57.0,48.0,30.36,East,94,2.0,3.0,71,0.00,,,0.00,,2013-04-22 01:32:00,
2013-04-21 18:42:00,57.0,48.0,30.36,East,94,2.0,3.0,71,0.00,,,0.00,,2013-04-22 01:42:00,
2013-04-21 18:52:00,57.0,48.0,30.36,East,94,2.0,3.0,71,0.00,,,0.00,,2013-04-22 01:52:00,
2013-04-21 19:01:00,57.0,48.0,30.35,East,95,0.0,0.0,72,0.00,,,0.00,,2013-04-22 02:01:00,
2013-04-21 19:11:00,57.0,48.0,30.35,East,95,0.0,0.0,72,0.00,,,0.00,,2013-04-22 02:11:00,
2013-04-21 19:21:00,57.0,48.0,30.35,East,95,0.0,0.0,72,0.00,,,0.00,,2013-04-22 02:21:00,
2013-04-21 19:31:00,56.0,48.0,30.35,SSE,156,0.0,0.0,74,0.00,,,0.00,,2013-04-22 02:31:00,
2013-04-21 19:42:00,56.0,48.0,30.35,SSE,156,0.0,0.0,74,0.00,,,0.00,,2013-04-22 02:42:00,
2013-04-21 19:52:00,56.0,48.0,30.35,SSE,156,0.0,0.0,74,0.00,,,0.00,,2013-04-22 02:52:00,
2013-04-21 20:02:00,55.0,48.0,30.35,SSE,157,1.0,1.0,76,0.00,,,0.00,,2013-04-22 03:02:00,
2013-04-21 20:11:00,55.0,48.0,30.35,SSE,157,1.0,1.0,76,0.00,,,0.00,,2013-04-22 03:11:00,
2013-04-21 20:22:00,55.0,48.0,30.35,SSE,157,1.0,1.0,76,0.00,,,0.00,,2013-04-22 03:22:00,
2013-04-21 20:33:00,55.0,48.0,30.34,SSE,155,0.0,1.0,77,0.00,,,0.00,,2013-04-22 03:33:00,
2013-04-21 20:43:00,55.0,48.0,30.34,SSE,155,0.0,1.0,77,0.00,,,0.00,,2013-04-22 03:43:00,
2013-04-21 20:52:00,55.0,48.0,30.34,SSE,155,0.0,1.0,77,0.00,,,0.00,,2013-04-22 03:52:00,
2013-04-21 21:02:00,54.0,48.0,30.35,SSE,155,0.0,0.0,79,0.00,,,0.00,,2013-04-22 04:02:00,
2013-04-21 21:12:00,54.0,48.0,30.35,SSE,155,0.0,0.0,79,0.00,,,0.00,,2013-04-22 04:12:00,
2013-04-21 21:23:00,54.0,48.0,30.35,SSE,155,0.0,0.0,79,0.00,,,0.00,,2013-04-22 04:23:00,
2013-04-21 21:32:00,53.0,47.0,30.35,SSE,155,0.0,0.0,80,0.00,,,0.00,,2013-04-22 04:32:00,
2013-04-21 21:43:00,53.0,47.0,30.35,SSE,155,0.0,0.0,80,0.00,,,0.00,,2013-04-22 04:43:00,
2013-04-21 21:52:00,53.0,47.0,30.35,SSE,155,0.0,0.0,80,0.00,,,0.00,,2013-04-22 04:52:00,
2013-04-21 22:02:00,53.0,47.0,30.35,SSE,155,0.0,1.0,81,0.00,,,0.00,,2013-04-22 05:02:00,
2013-04-21 22:12:00,53.0,47.0,30.35,SSE,155,0.0,1.0,81,0.00,,,0.00,,2013-04-22 05:12:00,
2013-04-21 22:22:00,53.0,47.0,30.35,SSE,155,0.0,1.0,81,0.00,,,0.00,,2013-04-22 05:22:00,
2013-04-21 22:32:00,53.0,48.0,30.36,SSE,162,0.0,0.0,83,0.00,,,0.00,,2013-04-22 05:32:00,
2013-04-21 22:42:00,53.0,48.0,30.36,SSE,162,0.0,0.0,83,0.00,,,0.00,,2013-04-22 05:42:00,
2013-04-21 22:52:00,53.0,48.0,30.36,SSE,162,0.0,0.0,83,0.00,,,0.00,,2013-04-22 05:52:00,
2013-04-21 23:02:00,52.0,47.0,30.36,SSE,158,0.0,3.0,84,0.00,,,0.00,,2013-04-22 06:02:00,
2013-04-21 23:12:00,52.0,47.0,30.36,SSE,158,0.0,3.0,84,0.00,,,0.00,,2013-04-22 06:12:00,
2013-04-21 23:21:00,52.0,47.0,30.36,SSE,158,0.0,3.0,84,0.00,,,0.00,,2013-04-22 06:21:00,
2013-04-21 23:32:00,52.0,47.0,30.36,SE,142,0.0,0.0,84,0.00,,,0.00,,2013-04-22 06:32:00,
2013-04-21 23:42:00,52.0,47.0,30.36,SE,142,0.0,0.0,84,0.00,,,0.00,,2013-04-22 06:42:00,
2013-04-21 23:52:00,52.0,47.0,30.36,SE,142,0.0,0.0,84,0.00,,,0.00,,2013-04-22 06:52:00,